Total_Precipitation_Accumulation
0.84 0.88 0.83 0.86 0.77 0.77 0.88 0.96 0.98 1.00 0.90 0.76 0.72 0.71 0.76 0.69 0.67 0.76 0.98 1.26 1.68 2.02 2.12 1.93 1.73 1.62 1.55 1.54 1.75 1.94 2.22 2.34 2.18 2.08 1.89 1.77 1.96 2.08 1.72 1.57 1.56 1.55 1.68
0.88 0.94 0.90 0.90 0.87 0.81 0.85 1.05 1.00 1.03 1.01 0.93 0.77 0.76 0.77 0.73 0.69 0.72 0.85 1.11 1.32 1.57 1.92 2.16 2.00 1.80 1.62 1.55 1.61 1.80 2.17 2.25 1.98 1.91 1.88 1.81 2.00 2.08 1.78 1.61 1.50 1.40 1.56
0.84 0.88 0.90 0.87 0.88 0.89 0.92 1.00 1.01 1.05 0.97 0.91 0.87 0.82 0.78 0.73 0.64 0.71 0.73 0.84 0.87 1.07 1.41 1.76 1.96 1.91 1.83 1.78 1.74 1.89 2.17 2.11 1.87 1.86 1.93 1.87 1.85 1.91 1.86 1.70 1.55 1.41 1.45
0.91 0.91 0.95 0.96 1.01 1.05 1.04 1.07 1.12 1.11 1.06 1.06 1.03 1.01 0.83 0.82 0.73 0.72 0.72 0.74 0.82 0.79 0.94 1.12 1.39 1.62 1.83 1.96 2.09 2.26 2.16 1.98 1.81 1.79 1.88 1.78 1.70 1.80 1.86 1.78 1.55 1.42 1.39
0.97 1.07 1.10 1.17 1.14 1.17 1.20 1.17 1.21 1.12 1.13 1.16 1.07 1.05 0.94 0.92 0.86 0.73 0.79 0.82 0.84 0.79 0.82 0.74 0.80 0.92 1.21 1.60 2.12 2.42 2.12 1.99 1.90 1.74 1.71 1.67 1.71 1.86 1.88 1.69 1.51 1.38 1.34
1.26 1.41 1.49 1.44 1.43 1.45 1.46 1.42 1.49 1.37 1.21 1.24 1.15 1.08 0.96 0.87 0.92 0.90 0.87 0.86 0.91 0.88 0.81 0.71 0.68 0.57 0.68 1.06 1.69 2.12 2.08 2.02 1.91 1.83 1.73 1.69 1.76 1.88 1.85 1.70 1.55 1.51 1.44
1.64 1.76 1.70 1.79 1.82 1.70 1.72 1.78 1.84 1.78 1.54 1.41 1.49 1.38 1.09 0.85 0.91 0.89 0.86 0.89 0.95 1.05 1.08 0.95 0.81 0.72 0.67 0.76 1.14 1.64 1.99 2.04 2.07 1.94 1.83 1.81 1.78 1.80 1.82 1.79 1.75 1.69 1.62
1.87 1.90 1.99 2.09 2.14 2.14 2.09 1.98 2.07 2.18 1.92 1.69 1.81 2.11 1.70 1.28 0.93 0.74 0.81 0.86 0.96 1.19 1.27 1.09 0.89 0.82 0.80 0.88 0.79 1.05 1.48 1.89 2.08 2.08 1.99 1.94 1.94 1.97 1.99 1.85 1.72 1.70 1.72
2.10 2.13 2.19 2.27 2.30 2.15 2.16 2.24 2.36 2.70 2.52 2.15 1.95 2.19 2.01 1.68 1.37 0.94 0.85 0.90 0.99 1.16 1.29 1.31 1.19 1.11 1.02 1.04 0.99 0.81 0.99 1.40 1.78 2.08 2.17 2.14 2.04 2.24 2.43 2.13 1.77 1.61 1.55
2.04 2.16 2.17 2.17 2.16 2.10 2.17 2.24 2.29 2.68 2.87 2.59 2.25 1.88 1.66 1.62 1.69 1.39 1.02 0.97 1.05 1.06 1.18 1.26 1.21 1.27 1.26 1.26 1.23 0.97 0.90 1.12 1.43 1.89 2.26 2.53 2.36 2.19 2.18 2.13 1.94 1.68 1.48
1.90 1.94 1.96 2.06 2.09 2.13 2.19 2.35 2.48 2.72 2.75 2.74 2.56 2.36 2.13 1.82 1.48 1.53 1.46 1.20 1.16 1.07 1.17 1.30 1.35 1.42 1.44 1.47 1.58 1.30 1.01 0.91 1.09 1.52 2.06 2.53 2.57 2.37 2.14 2.00 1.92 1.86 1.61
1.88 1.82 1.80 1.87 1.99 2.14 2.20 2.30 2.44 2.68 2.80 2.88 2.80 2.52 2.43 2.26 1.95 1.82 1.57 1.42 1.42 1.22 1.19 1.24 1.28 1.41 1.56 1.64 1.59 1.69 1.36 0.95 0.86 1.13 1.48 1.97 2.41 2.56 2.47 2.34 2.22 2.18 2.00
1.61 1.66 1.74 1.81 1.94 2.05 2.12 2.25 2.39 2.44 2.56 2.80 2.81 2.63 2.42 2.21 2.17 2.06 1.95 1.62 1.45 1.28 1.26 1.27 1.23 1.29 1.31 1.58 1.71 1.78 1.45 1.09 0.84 0.85 1.03 1.26 1.60 2.05 2.44 2.52 2.50 2.58 2.57
1.53 1.48 1.52 1.61 1.82 2.01 2.09 2.18 2.20 2.17 2.22 2.42 2.42 2.48 2.45 2.16 2.09 2.00 1.99 2.06 1.78 1.59 1.43 1.25 1.13 1.18 1.23 1.43 1.73 1.81 1.37 1.17 0.95 0.82 0.86 1.06 1.15 1.26 1.63 2.18 2.49 2.64 2.83
1.32 1.28 1.32 1.35 1.47 1.68 1.93 2.08 2.03 1.95 1.91 2.07 2.14 2.23 2.35 2.36 2.25 2.15 2.12 2.18 2.13 1.88 1.68 1.46 1.23 1.11 1.18 1.31 1.71 1.64 1.43 1.26 1.13 0.96 0.88 0.94 0.94 0.98 1.10 1.39 1.70 1.86 2.05
1.11 1.11 1.11 1.18 1.33 1.45 1.64 1.86 1.95 1.88 1.86 1.93 2.03 2.16 2.28 2.38 2.41 2.21 2.17 2.15 2.01 1.91 1.76 1.46 1.23 1.15 1.21 1.20 1.55 1.57 1.52 1.52 1.28 1.11 1.03 1.00 1.00 0.92 0.94 1.07 1.16 1.20 1.17
0.90 0.93 1.10 1.16 1.23 1.31 1.51 1.77 1.95 1.96 1.88 1.88 1.85 1.93 2.09 2.18 2.38 2.34 2.25 2.14 2.02 1.86 1.73 1.56 1.35 1.19 1.24 1.30 1.40 1.49 1.49 1.39 1.22 1.17 1.05 1.00 0.99 0.97 0.95 1.00 1.13 1.06 0.97
0.66 0.77 0.91 0.96 1.01 1.05 1.23 1.53 1.73 1.77 1.75 1.66 1.64 1.76 1.97 2.13 2.34 2.42 2.36 2.22 2.13 2.00 1.90 1.83 1.65 1.43 1.31 1.35 1.49 1.59 1.55 1.47 1.39 1.38 1.23 1.11 1.04 0.98 0.98 0.97 1.03 1.10 1.05
0.67 0.79 0.87 0.92 0.95 1.01 1.05 1.16 1.32 1.44 1.43 1.37 1.41 1.47 1.52 1.72 2.00 2.16 2.18 2.19 2.23 2.21 2.18 2.03 1.83 1.69 1.54 1.44 1.53 1.59 1.57 1.61 1.47 1.46 1.43 1.35 1.28 1.19 1.09 1.04 1.02 1.04 1.08
0.63 0.72 0.79 0.86 0.92 0.97 0.98 0.99 1.02 1.09 1.11 1.16 1.22 1.26 1.31 1.36 1.59 1.75 1.84 2.02 2.25 2.27 2.30 2.22 2.00 1.82 1.68 1.56 1.63 1.74 1.81 1.79 1.63 1.42 1.40 1.33 1.37 1.32 1.21 1.05 0.99 0.98 1.03
0.55 0.63 0.70 0.72 0.77 0.86 0.95 0.97 0.85 0.81 0.91 1.02 1.03 1.00 1.02 1.10 1.23 1.33 1.39 1.74 2.09 2.27 2.27 2.22 2.08 1.96 1.71 1.58 1.46 1.48 1.70 1.95 1.93 1.82 1.69 1.43 1.37 1.29 1.22 1.17 1.05 0.98 0.99
0.52 0.57 0.56 0.59 0.70 0.74 0.88 0.87 0.71 0.70 0.75 0.85 0.94 0.92 0.81 0.80 0.84 0.92 1.00 1.17 1.45 1.69 1.97 2.15 2.07 1.87 1.65 1.55 1.51 1.54 1.60 1.73 1.88 1.77 1.80 1.78 1.69 1.62 1.51 1.37 1.34 1.24 1.14
0.48 0.50 0.49 0.50 0.55 0.68 0.73 0.60 0.58 0.62 0.70 0.76 0.81 0.87 0.79 0.68 0.75 0.80 0.90 0.97 0.98 1.06 1.34 1.68 1.81 1.75 1.81 1.69 1.65 1.59 1.56 1.65 1.69 1.65 1.81 1.87 1.83 1.78 1.69 1.66 1.73 1.57 1.39
0.55 0.55 0.56 0.55 0.54 0.59 0.59 0.48 0.52 0.54 0.60 0.66 0.75 0.84 0.89 0.81 0.81 0.91 0.91 0.95 0.90 0.86 1.06 1.06 1.23 1.52 1.69 1.78 1.75 1.83 1.99 1.96 1.82 1.68 1.63 1.69 1.61 1.59 1.62 1.62 1.72 1.64 1.52
0.53 0.56 0.60 0.60 0.55 0.52 0.54 0.46 0.48 0.54 0.59 0.63 0.66 0.72 0.81 0.78 0.92 1.01 1.01 1.13 1.11 0.98 1.11 1.17 1.20 1.24 1.36 1.52 1.64 1.71 1.80 1.86 1.83 1.72 1.53 1.40 1.35 1.34 1.40 1.42 1.43 1.50 1.49
0.31 0.42 0.45 0.48 0.51 0.50 0.63 0.51 0.51 0.54 0.62 0.72 0.74 0.72 0.86 0.86 0.94 0.93 0.91 1.14 1.15 1.03 0.95 1.02 1.03 1.00 0.94 1.05 1.26 1.43 1.64 1.75 1.72 1.63 1.38 1.24 1.21 1.25 1.24 1.10 1.02 1.06 1.07